NKS2438 KIAH-KTPA

Flight info

Callsign NKS2438
Flight time 1h 37m
Altitude 35000
Route GUMBY3 LLA LEV Y280 CHRGE RAYZZ3
Aircraft A21N/M-SDE3FGHIRWY/LB1

Departure

Time 2026-05-08 04:06
Airport George Bush Intercontinental Airport (KIAH)

Arrival

Time 2026-05-08 05:43
Airport Tampa International Airport (KTPA)
Time Latitude Longitude Altitude Speed Heading
2026-05-08 03:48 29.98513 -95.34894 100 ft 0 kts 270°
2026-05-08 03:55 29.98513 -95.34880 100 ft 2 kts 270°
2026-05-08 03:55 29.98513 -95.34865 100 ft 0 kts 270°
2026-05-08 03:55 29.98513 -95.34852 100 ft 2 kts 252°
2026-05-08 03:56 29.98520 -95.34837 100 ft 2 kts 228°
2026-05-08 03:56 29.98532 -95.34827 100 ft 1 kts 202°
2026-05-08 03:56 29.98538 -95.34824 100 ft 1 kts 193°
2026-05-08 03:56 29.98541 -95.34823 100 ft 0 kts 196°
2026-05-08 03:57 29.98541 -95.34824 100 ft 0 kts 196°
2026-05-08 03:58 29.98540 -95.34824 100 ft 1 kts 196°
2026-05-08 03:58 29.98515 -95.34827 100 ft 5 kts 184°
2026-05-08 03:59 29.98465 -95.34831 100 ft 7 kts 183°
2026-05-08 03:59 29.98412 -95.34833 100 ft 7 kts 181°
2026-05-08 03:59 29.98383 -95.34865 100 ft 7 kts 262°
2026-05-08 03:59 29.98382 -95.34939 99 ft 11 kts 270°
2026-05-08 04:00 29.98383 -95.35036 99 ft 14 kts 270°
2026-05-08 04:00 29.98384 -95.35150 99 ft 13 kts 271°
2026-05-08 04:00 29.98378 -95.35256 99 ft 13 kts 255°
2026-05-08 04:00 29.98409 -95.35341 99 ft 12 kts 332°
2026-05-08 04:01 29.98486 -95.35387 99 ft 12 kts 332°
2026-05-08 04:01 29.98563 -95.35434 99 ft 12 kts 333°
2026-05-08 04:01 29.98644 -95.35480 100 ft 12 kts 333°
2026-05-08 04:01 29.98719 -95.35525 100 ft 13 kts 333°
2026-05-08 04:02 29.98792 -95.35571 100 ft 11 kts 332°
2026-05-08 04:02 29.98844 -95.35619 100 ft 7 kts 279°
2026-05-08 04:02 29.98832 -95.35682 100 ft 8 kts 242°
2026-05-08 04:02 29.98828 -95.35689 100 ft 0 kts 240°
2026-05-08 04:03 29.98827 -95.35690 100 ft 0 kts 240°
2026-05-08 04:03 29.98776 -95.35774 100 ft 6 kts 194°
2026-05-08 04:03 29.98758 -95.35769 100 ft 0 kts 154°
2026-05-08 04:04 29.98755 -95.35767 100 ft 1 kts 154°
2026-05-08 04:04 29.98744 -95.35761 100 ft 2 kts 154°
2026-05-08 04:05 29.98738 -95.35758 100 ft 0 kts 154°
2026-05-08 04:05 29.98730 -95.35754 100 ft 12 kts 154°
2026-05-08 04:05 29.98412 -95.35556 99 ft 87 kts 152°
2026-05-08 04:05 29.97677 -95.35107 98 ft 148 kts 153°
2026-05-08 04:06 29.96619 -95.34459 183 ft 188 kts 150°
2026-05-08 04:06 29.95557 -95.33802 1157 ft 162 kts 148°
2026-05-08 04:06 29.94721 -95.33009 1708 ft 161 kts 113°
2026-05-08 04:06 29.94465 -95.31752 2034 ft 169 kts 97°
2026-05-08 04:07 29.94322 -95.30347 2299 ft 184 kts 96°
2026-05-08 04:07 29.94165 -95.28833 2698 ft 193 kts 98°
2026-05-08 04:07 29.93962 -95.27301 3166 ft 198 kts 100°
2026-05-08 04:07 29.93736 -95.25704 3549 ft 209 kts 98°
2026-05-08 04:08 29.93625 -95.23933 3793 ft 231 kts 92°
2026-05-08 04:08 29.93666 -95.21950 3955 ft 253 kts 89°
2026-05-08 04:08 29.93733 -95.19823 4246 ft 268 kts 90°
2026-05-08 04:08 29.93789 -95.17695 5048 ft 267 kts 90°
2026-05-08 04:09 29.93835 -95.15538 5748 ft 271 kts 91°
2026-05-08 04:09 29.93871 -95.13306 6386 ft 276 kts 91°
2026-05-08 04:09 29.93903 -95.11068 7025 ft 281 kts 91°
2026-05-08 04:09 29.93897 -95.08804 7629 ft 286 kts 95°
2026-05-08 04:10 29.93587 -95.06531 8219 ft 290 kts 106°
2026-05-08 04:10 29.92981 -95.04274 8795 ft 294 kts 110°
2026-05-08 04:10 29.92310 -95.02028 9305 ft 300 kts 110°
2026-05-08 04:10 29.91619 -94.99738 9829 ft 305 kts 110°
2026-05-08 04:11 29.90923 -94.97420 10317 ft 310 kts 110°
2026-05-08 04:11 29.90568 -94.96232 10452 ft 317 kts 110°
2026-05-08 04:11 29.89840 -94.93787 10717 ft 332 kts 110°
2026-05-08 04:11 29.89059 -94.91159 10971 ft 346 kts 110°
2026-05-08 04:12 29.88264 -94.88485 11226 ft 359 kts 110°
2026-05-08 04:12 29.87449 -94.85732 11648 ft 366 kts 110°
2026-05-08 04:12 29.86629 -94.82966 12163 ft 369 kts 110°
2026-05-08 04:12 29.85798 -94.80164 12675 ft 373 kts 110°
2026-05-08 04:13 29.84961 -94.77342 13160 ft 377 kts 110°
2026-05-08 04:13 29.84103 -94.74457 13642 ft 381 kts 110°
2026-05-08 04:13 29.83251 -94.71581 14097 ft 385 kts 110°
2026-05-08 04:13 29.82371 -94.68622 14541 ft 390 kts 110°
2026-05-08 04:14 29.81502 -94.65702 14968 ft 394 kts 111°
2026-05-08 04:14 29.80602 -94.62683 15439 ft 397 kts 111°
2026-05-08 04:14 29.79706 -94.59683 15885 ft 401 kts 111°
2026-05-08 04:14 29.78796 -94.56631 16305 ft 405 kts 111°
2026-05-08 04:15 29.77878 -94.53565 16713 ft 409 kts 112°
2026-05-08 04:15 29.76950 -94.50464 17158 ft 412 kts 112°
2026-05-08 04:15 29.76638 -94.49424 17305 ft 413 kts 112°
2026-05-08 04:15 29.76588 -94.49257 17328 ft 413 kts 112°
2026-05-08 04:16 29.75725 -94.46379 17691 ft 417 kts 112°
2026-05-08 04:16 29.74770 -94.43199 18090 ft 421 kts 112°
2026-05-08 04:16 29.73817 -94.40037 18496 ft 424 kts 113°
2026-05-08 04:17 29.72869 -94.36794 18928 ft 427 kts 110°
2026-05-08 04:17 29.72098 -94.33456 19337 ft 431 kts 106°
2026-05-08 04:17 29.71565 -94.30076 19708 ft 436 kts 101°
2026-05-08 04:17 29.71170 -94.26610 20068 ft 440 kts 100°
2026-05-08 04:18 29.70803 -94.23119 20403 ft 443 kts 99°
2026-05-08 04:18 29.70426 -94.19557 20765 ft 446 kts 100°
2026-05-08 04:18 29.70041 -94.16019 21128 ft 448 kts 100°
2026-05-08 04:18 29.69645 -94.12458 21472 ft 451 kts 100°
2026-05-08 04:19 29.69244 -94.08875 21802 ft 454 kts 100°
2026-05-08 04:19 29.68857 -94.05248 22135 ft 457 kts 98°
2026-05-08 04:19 29.68638 -94.01601 22436 ft 462 kts 94°
2026-05-08 04:19 29.68577 -93.97897 22788 ft 464 kts 92°
2026-05-08 04:20 29.68551 -93.94189 23124 ft 466 kts 92°
2026-05-08 04:20 29.68532 -93.90472 23415 ft 469 kts 92°
2026-05-08 04:20 29.68508 -93.86719 23698 ft 472 kts 92°
2026-05-08 04:20 29.68480 -93.82944 24008 ft 475 kts 92°
2026-05-08 04:21 29.68448 -93.79149 24358 ft 475 kts 92°
2026-05-08 04:21 29.68413 -93.75406 24778 ft 474 kts 92°
2026-05-08 04:21 29.68374 -93.71601 25097 ft 477 kts 92°
2026-05-08 04:21 29.68334 -93.67792 25371 ft 479 kts 92°
2026-05-08 04:22 29.68295 -93.63947 25658 ft 482 kts 93°
2026-05-08 04:22 29.68254 -93.60132 25951 ft 484 kts 92°
2026-05-08 04:22 29.68208 -93.56238 26207 ft 487 kts 92°
2026-05-08 04:22 29.68163 -93.52384 26456 ft 489 kts 92°
2026-05-08 04:23 29.68119 -93.48470 26730 ft 491 kts 93°
2026-05-08 04:23 29.68070 -93.44504 26979 ft 494 kts 92°
2026-05-08 04:23 29.68021 -93.40565 27219 ft 497 kts 93°
2026-05-08 04:23 29.67970 -93.36626 27479 ft 498 kts 93°
2026-05-08 04:24 29.67918 -93.32629 27716 ft 501 kts 93°
2026-05-08 04:24 29.67864 -93.28571 27949 ft 503 kts 93°
2026-05-08 04:24 29.67809 -93.24532 28177 ft 505 kts 93°
2026-05-08 04:24 29.67753 -93.20519 28378 ft 507 kts 93°
2026-05-08 04:25 29.67694 -93.16472 28596 ft 509 kts 93°
2026-05-08 04:25 29.67635 -93.12405 28820 ft 511 kts 93°
2026-05-08 04:25 29.67575 -93.08306 29056 ft 513 kts 93°
2026-05-08 04:25 29.67511 -93.04242 29272 ft 515 kts 93°
2026-05-08 04:26 29.67447 -93.00088 29493 ft 517 kts 93°
2026-05-08 04:26 29.67382 -92.95999 29707 ft 519 kts 93°
2026-05-08 04:26 29.67316 -92.91852 29909 ft 521 kts 93°
2026-05-08 04:26 29.67248 -92.87686 30131 ft 522 kts 93°
2026-05-08 04:27 29.67180 -92.83514 30355 ft 524 kts 93°
2026-05-08 04:27 29.67106 -92.79282 30615 ft 524 kts 93°
2026-05-08 04:27 29.67033 -92.75086 30952 ft 523 kts 94°
2026-05-08 04:27 29.66960 -92.70951 31281 ft 522 kts 94°
2026-05-08 04:28 29.66884 -92.66785 31606 ft 520 kts 94°
2026-05-08 04:28 29.66809 -92.62601 31914 ft 520 kts 94°
2026-05-08 04:28 29.66733 -92.58460 32200 ft 519 kts 94°
2026-05-08 04:28 29.66653 -92.54321 32485 ft 519 kts 94°
2026-05-08 04:29 29.66573 -92.50169 32746 ft 519 kts 94°
2026-05-08 04:29 29.66493 -92.46063 33031 ft 519 kts 94°
2026-05-08 04:29 29.66381 -92.41946 33330 ft 518 kts 96°
2026-05-08 04:29 29.66087 -92.37837 33566 ft 517 kts 100°
2026-05-08 04:30 29.65563 -92.33758 33747 ft 517 kts 105°
2026-05-08 04:30 29.64814 -92.29724 33919 ft 516 kts 108°
2026-05-08 04:30 29.63964 -92.25670 34132 ft 516 kts 108°
2026-05-08 04:30 29.63121 -92.21693 34317 ft 518 kts 108°
2026-05-08 04:31 29.62268 -92.17684 34490 ft 519 kts 108°
2026-05-08 04:31 29.61416 -92.13652 34654 ft 520 kts 108°
2026-05-08 04:31 29.60567 -92.09598 34838 ft 521 kts 108°
2026-05-08 04:31 29.59727 -92.05578 34972 ft 523 kts 108°
2026-05-08 04:32 29.58036 -91.97458 34976 ft 523 kts 108°
2026-05-08 04:32 29.56347 -91.89391 34972 ft 523 kts 107°
2026-05-08 04:33 29.54638 -91.81247 34976 ft 524 kts 108°
2026-05-08 04:33 29.52941 -91.73180 34975 ft 523 kts 107°
2026-05-08 04:34 29.51225 -91.65062 34976 ft 523 kts 108°
2026-05-08 04:34 29.49506 -91.56947 34979 ft 523 kts 108°
2026-05-08 04:35 29.47796 -91.48900 34976 ft 523 kts 107°
2026-05-08 04:35 29.46068 -91.40794 34976 ft 522 kts 107°
2026-05-08 04:36 29.44339 -91.32700 34974 ft 522 kts 108°
2026-05-08 04:36 29.42605 -91.24616 34975 ft 521 kts 108°
2026-05-08 04:37 29.40885 -91.16630 34976 ft 521 kts 108°
2026-05-08 04:37 29.39143 -91.08576 34976 ft 522 kts 108°
2026-05-08 04:38 29.37406 -91.00546 34978 ft 521 kts 108°
2026-05-08 04:38 29.35655 -90.92480 34976 ft 521 kts 108°
2026-05-08 04:39 29.33899 -90.84432 34979 ft 522 kts 108°
2026-05-08 04:39 29.32150 -90.76433 34979 ft 521 kts 108°
2026-05-08 04:40 29.30388 -90.68385 34977 ft 522 kts 108°
2026-05-08 04:40 29.28617 -90.60337 34976 ft 522 kts 108°
2026-05-08 04:41 29.26846 -90.52320 34976 ft 522 kts 108°
2026-05-08 04:41 29.25068 -90.44277 34980 ft 522 kts 108°
2026-05-08 04:42 29.23296 -90.36289 34978 ft 521 kts 108°
2026-05-08 04:42 29.21496 -90.28199 34977 ft 521 kts 108°
2026-05-08 04:43 29.19718 -90.20244 34981 ft 521 kts 108°
2026-05-08 04:43 29.17919 -90.12205 34977 ft 522 kts 108°
2026-05-08 04:44 29.16205 -90.04167 34977 ft 523 kts 106°
2026-05-08 04:44 29.14576 -89.96052 34977 ft 523 kts 106°
2026-05-08 04:45 29.12944 -89.87982 34976 ft 523 kts 107°
2026-05-08 04:45 29.11298 -89.79932 34975 ft 522 kts 107°
2026-05-08 04:46 29.09637 -89.71854 34976 ft 522 kts 106°
2026-05-08 04:46 29.07979 -89.63810 34974 ft 522 kts 106°
2026-05-08 04:47 29.06303 -89.55706 34975 ft 521 kts 106°
2026-05-08 04:47 29.04639 -89.47681 34975 ft 522 kts 106°
2026-05-08 04:48 29.02966 -89.39640 34977 ft 522 kts 106°
2026-05-08 04:48 29.01286 -89.31589 34974 ft 522 kts 107°
2026-05-08 04:49 28.99604 -89.23564 34973 ft 522 kts 107°
2026-05-08 04:49 28.97909 -89.15490 34976 ft 522 kts 107°
2026-05-08 04:50 28.96211 -89.07449 34976 ft 522 kts 107°
2026-05-08 04:50 28.94515 -88.99416 34983 ft 521 kts 107°
2026-05-08 04:51 28.92811 -88.91373 34992 ft 521 kts 107°
2026-05-08 04:51 28.91098 -88.83329 34994 ft 521 kts 107°
2026-05-08 04:52 28.89387 -88.75304 34992 ft 522 kts 107°
2026-05-08 04:52 28.87519 -88.67300 34994 ft 520 kts 110°
2026-05-08 04:53 28.85354 -88.59468 34994 ft 518 kts 111°
2026-05-08 04:53 28.83164 -88.51645 34996 ft 519 kts 111°
2026-05-08 04:54 28.80983 -88.43820 34996 ft 519 kts 111°
2026-05-08 04:54 28.78797 -88.35969 34996 ft 519 kts 111°
2026-05-08 04:55 28.76623 -88.28183 34990 ft 519 kts 111°
2026-05-08 04:55 28.74429 -88.20334 34987 ft 519 kts 111°
2026-05-08 04:56 28.72246 -88.12550 34987 ft 518 kts 111°
2026-05-08 04:56 28.70033 -88.04685 34987 ft 518 kts 111°
2026-05-08 04:57 28.67827 -87.96873 34983 ft 518 kts 111°
2026-05-08 04:57 28.65602 -87.89013 34985 ft 519 kts 111°
2026-05-08 04:58 28.63388 -87.81198 34987 ft 518 kts 111°
2026-05-08 04:58 28.61176 -87.73418 34984 ft 518 kts 111°
2026-05-08 04:59 28.58949 -87.65599 34980 ft 518 kts 111°
2026-05-08 04:59 28.56708 -87.57751 34978 ft 518 kts 111°
2026-05-08 05:00 28.54470 -87.49921 34977 ft 518 kts 111°
2026-05-08 05:00 28.52245 -87.42168 34977 ft 518 kts 111°
2026-05-08 05:01 28.50019 -87.34430 34977 ft 517 kts 111°
2026-05-08 05:01 28.47781 -87.26661 34977 ft 517 kts 111°
2026-05-08 05:02 28.45549 -87.18935 34977 ft 516 kts 111°
2026-05-08 05:02 28.43305 -87.11186 34978 ft 516 kts 111°
2026-05-08 05:03 28.41071 -87.03492 34977 ft 517 kts 111°
2026-05-08 05:03 28.38810 -86.95718 34977 ft 517 kts 111°
2026-05-08 05:04 28.36567 -86.88023 34976 ft 516 kts 111°
2026-05-08 05:04 28.34298 -86.80262 34977 ft 517 kts 111°
2026-05-08 05:05 28.32040 -86.72552 34976 ft 517 kts 111°
2026-05-08 05:05 28.29784 -86.64846 34977 ft 517 kts 111°
2026-05-08 05:06 28.27528 -86.57120 34977 ft 516 kts 111°
2026-05-08 05:06 28.25272 -86.49405 34977 ft 516 kts 111°
2026-05-08 05:07 28.23020 -86.41720 34976 ft 515 kts 111°
2026-05-08 05:07 28.20757 -86.34026 34975 ft 515 kts 111°
2026-05-08 05:08 28.18502 -86.26363 34976 ft 515 kts 111°
2026-05-08 05:08 28.16230 -86.18673 34977 ft 515 kts 111°
2026-05-08 05:09 28.13960 -86.11001 34977 ft 515 kts 111°
2026-05-08 05:09 28.11683 -86.03322 34976 ft 514 kts 111°
2026-05-08 05:10 28.08265 -85.91835 34977 ft 515 kts 111°
2026-05-08 05:11 28.05988 -85.84203 34977 ft 514 kts 111°
2026-05-08 05:11 28.03699 -85.76542 34977 ft 514 kts 111°
2026-05-08 05:12 28.01413 -85.68913 34977 ft 514 kts 111°
2026-05-08 05:12 27.99120 -85.61275 34976 ft 513 kts 111°
2026-05-08 05:13 27.96818 -85.53628 34973 ft 514 kts 111°
2026-05-08 05:13 27.94529 -85.46037 34973 ft 513 kts 111°
2026-05-08 05:14 27.92230 -85.38430 34974 ft 513 kts 111°
2026-05-08 05:14 27.89916 -85.30791 34975 ft 513 kts 111°
2026-05-08 05:15 27.87927 -85.23048 34973 ft 514 kts 104°
2026-05-08 05:15 27.86567 -85.15147 34977 ft 514 kts 101°
2026-05-08 05:16 27.85278 -85.07221 34975 ft 515 kts 102°
2026-05-08 05:16 27.83952 -84.99281 34953 ft 514 kts 102°
2026-05-08 05:16 27.83285 -84.95332 34571 ft 514 kts 102°
2026-05-08 05:17 27.82610 -84.91342 34049 ft 511 kts 102°
2026-05-08 05:17 27.82013 -84.87397 33421 ft 509 kts 99°
2026-05-08 05:17 27.81626 -84.83465 32771 ft 508 kts 95°
2026-05-08 05:17 27.81461 -84.79481 32129 ft 508 kts 91°
2026-05-08 05:18 27.81529 -84.75489 31462 ft 508 kts 87°
2026-05-08 05:18 27.81721 -84.71497 30758 ft 509 kts 86°
2026-05-08 05:18 27.81935 -84.67549 30064 ft 510 kts 86°
2026-05-08 05:18 27.82147 -84.63560 29599 ft 504 kts 86°
2026-05-08 05:19 27.82346 -84.59666 29152 ft 499 kts 86°
2026-05-08 05:19 27.82538 -84.55783 28700 ft 495 kts 86°
2026-05-08 05:19 27.82724 -84.51926 28243 ft 491 kts 86°
2026-05-08 05:19 27.82906 -84.48076 27777 ft 487 kts 86°
2026-05-08 05:20 27.83083 -84.44277 27314 ft 484 kts 86°
2026-05-08 05:20 27.83255 -84.40540 26852 ft 480 kts 86°
2026-05-08 05:20 27.83427 -84.36781 26388 ft 477 kts 86°
2026-05-08 05:20 27.83597 -84.33048 25919 ft 473 kts 87°
2026-05-08 05:21 27.83765 -84.29369 25462 ft 469 kts 87°
2026-05-08 05:21 27.83929 -84.25729 24998 ft 466 kts 87°
2026-05-08 05:21 27.84093 -84.22076 24525 ft 463 kts 86°
2026-05-08 05:21 27.84252 -84.18478 24055 ft 460 kts 86°
2026-05-08 05:22 27.84413 -84.14875 23589 ft 457 kts 87°
2026-05-08 05:22 27.84570 -84.11345 23117 ft 454 kts 87°
2026-05-08 05:22 27.84723 -84.07809 22652 ft 451 kts 86°
2026-05-08 05:22 27.84876 -84.04282 22186 ft 448 kts 86°
2026-05-08 05:23 27.85030 -84.00771 21723 ft 445 kts 86°
2026-05-08 05:23 27.85183 -83.97237 21252 ft 443 kts 86°
2026-05-08 05:23 27.85331 -83.93818 20803 ft 439 kts 86°
2026-05-08 05:23 27.85517 -83.90385 20361 ft 436 kts 84°
2026-05-08 05:24 27.85781 -83.87007 19899 ft 433 kts 84°
2026-05-08 05:24 27.86064 -83.83621 19441 ft 430 kts 84°
2026-05-08 05:24 27.86347 -83.80238 18988 ft 427 kts 84°
2026-05-08 05:24 27.86620 -83.76944 18538 ft 425 kts 84°
2026-05-08 05:25 27.86893 -83.73624 18084 ft 422 kts 84°
2026-05-08 05:25 27.87161 -83.70331 17635 ft 419 kts 84°
2026-05-08 05:25 27.87424 -83.67075 17188 ft 417 kts 84°
2026-05-08 05:25 27.87683 -83.63855 16741 ft 414 kts 84°
2026-05-08 05:26 27.87944 -83.60616 16294 ft 411 kts 84°
2026-05-08 05:26 27.88200 -83.57419 15853 ft 408 kts 84°
2026-05-08 05:26 27.88455 -83.54237 15411 ft 405 kts 84°
2026-05-08 05:26 27.88703 -83.51111 14970 ft 402 kts 85°
2026-05-08 05:27 27.88951 -83.47993 14525 ft 398 kts 85°
2026-05-08 05:27 27.89197 -83.44881 14083 ft 395 kts 85°
2026-05-08 05:27 27.89441 -83.41788 13638 ft 392 kts 85°
2026-05-08 05:27 27.89678 -83.38760 13199 ft 389 kts 85°
2026-05-08 05:28 27.89915 -83.35719 12756 ft 385 kts 85°
2026-05-08 05:28 27.90148 -83.32730 12319 ft 382 kts 85°
2026-05-08 05:28 27.90380 -83.29738 11877 ft 378 kts 85°
2026-05-08 05:28 27.90608 -83.26800 11442 ft 375 kts 85°
2026-05-08 05:29 27.90835 -83.23865 11003 ft 372 kts 85°
2026-05-08 05:29 27.91058 -83.20982 10585 ft 368 kts 85°
2026-05-08 05:29 27.91339 -83.18166 10272 ft 360 kts 79°
2026-05-08 05:29 27.92026 -83.15442 9979 ft 350 kts 68°
2026-05-08 05:30 27.93022 -83.13010 9955 ft 332 kts 62°
2026-05-08 05:30 27.94041 -83.10752 9950 ft 315 kts 62°
2026-05-08 05:30 27.95031 -83.08582 9949 ft 305 kts 62°
2026-05-08 05:30 27.95990 -83.06471 9952 ft 305 kts 62°
2026-05-08 05:31 27.96962 -83.04311 9954 ft 305 kts 62°
2026-05-08 05:31 27.97924 -83.02160 9955 ft 305 kts 62°
2026-05-08 05:31 27.98877 -83.00020 9955 ft 305 kts 62°
2026-05-08 05:31 27.99830 -82.97871 9954 ft 305 kts 62°
2026-05-08 05:32 28.00780 -82.95731 9956 ft 305 kts 62°
2026-05-08 05:32 28.01728 -82.93594 9960 ft 304 kts 62°
2026-05-08 05:32 28.02679 -82.91449 9954 ft 305 kts 62°
2026-05-08 05:32 28.03630 -82.89303 9913 ft 306 kts 62°
2026-05-08 05:33 28.04588 -82.87138 9525 ft 307 kts 62°
2026-05-08 05:33 28.05530 -82.84993 9142 ft 305 kts 64°
2026-05-08 05:33 28.06182 -82.82637 8763 ft 304 kts 80°
2026-05-08 05:33 28.06352 -82.80228 8406 ft 302 kts 88°
2026-05-08 05:34 28.06395 -82.77860 8062 ft 299 kts 88°
2026-05-08 05:34 28.06425 -82.75523 7713 ft 296 kts 88°
2026-05-08 05:34 28.06465 -82.73193 7362 ft 294 kts 88°
2026-05-08 05:34 28.06515 -82.70890 7016 ft 291 kts 88°
2026-05-08 05:35 28.06569 -82.68636 6677 ft 288 kts 87°
2026-05-08 05:35 28.06626 -82.66354 6333 ft 285 kts 87°
2026-05-08 05:35 28.06748 -82.64135 6013 ft 280 kts 77°
2026-05-08 05:35 28.07583 -82.62266 5731 ft 263 kts 43°
2026-05-08 05:36 28.09099 -82.61189 5211 ft 256 kts 14°
2026-05-08 05:36 28.10858 -82.60997 4605 ft 254 kts 356°
2026-05-08 05:36 28.12585 -82.61056 4191 ft 245 kts 356°
2026-05-08 05:36 28.14261 -82.61100 3935 ft 231 kts 357°
2026-05-08 05:37 28.15756 -82.61118 3664 ft 221 kts 358°
2026-05-08 05:37 28.17273 -82.60878 3205 ft 222 kts 24°
2026-05-08 05:37 28.18385 -82.59835 2976 ft 226 kts 57°
2026-05-08 05:37 28.18857 -82.58152 2977 ft 227 kts 85°
2026-05-08 05:38 28.18677 -82.56468 2961 ft 207 kts 112°
2026-05-08 05:38 28.18020 -82.55035 3024 ft 202 kts 125°
2026-05-08 05:38 28.17341 -82.54136 2985 ft 201 kts 141°
2026-05-08 05:38 28.16085 -82.53554 2974 ft 196 kts 174°
2026-05-08 05:39 28.14722 -82.53509 2902 ft 195 kts 184°
2026-05-08 05:39 28.13415 -82.53600 2703 ft 181 kts 186°
2026-05-08 05:39 28.12700 -82.53652 2555 ft 173 kts 186°
2026-05-08 05:39 28.11555 -82.53719 2303 ft 158 kts 185°
2026-05-08 05:40 28.10476 -82.53764 2084 ft 151 kts 185°
2026-05-08 05:40 28.09417 -82.53802 1904 ft 151 kts 185°
2026-05-08 05:40 28.08371 -82.53835 1726 ft 151 kts 185°
2026-05-08 05:40 28.07324 -82.53868 1542 ft 150 kts 185°
2026-05-08 05:41 28.06276 -82.53901 1353 ft 149 kts 184°
2026-05-08 05:41 28.05236 -82.53934 1156 ft 148 kts 185°
2026-05-08 05:41 28.04208 -82.53968 962 ft 147 kts 184°
2026-05-08 05:41 28.03171 -82.54003 764 ft 147 kts 184°
2026-05-08 05:42 28.02161 -82.54037 575 ft 146 kts 184°
2026-05-08 05:42 28.01135 -82.54071 386 ft 145 kts 183°
2026-05-08 05:42 28.00134 -82.54102 209 ft 144 kts 182°
2026-05-08 05:42 27.99122 -82.54139 40 ft 143 kts 182°
2026-05-08 05:43 27.98227 -82.54172 21 ft 105 kts 181°
2026-05-08 05:43 27.97793 -82.54162 19 ft 37 kts 167°
2026-05-08 05:43 27.97668 -82.54100 19 ft 12 kts 126°
2026-05-08 05:43 27.97614 -82.54069 19 ft 8 kts 181°
2026-05-08 05:44 27.97553 -82.54068 18 ft 9 kts 166°
2026-05-08 05:44 27.97513 -82.54009 18 ft 11 kts 103°
2026-05-08 05:44 27.97492 -82.53902 19 ft 16 kts 114°
2026-05-08 05:44 27.97395 -82.53728 19 ft 37 kts 121°
2026-05-08 05:45 27.97315 -82.53391 21 ft 46 kts 92°
2026-05-08 05:45 27.97326 -82.53094 23 ft 26 kts 44°
2026-05-08 05:45 27.97500 -82.53073 24 ft 24 kts
2026-05-08 05:45 27.97678 -82.53067 25 ft 27 kts
2026-05-08 05:46 27.97799 -82.53096 25 ft 9 kts 306°
2026-05-08 05:46 27.97828 -82.53177 25 ft 16 kts 263°
2026-05-08 05:46 27.97801 -82.53213 24 ft 0 kts 189°
2026-05-08 05:46 27.97778 -82.53222 24 ft 0 kts 200°
2026-05-08 05:49 27.97783 -82.53220 24 ft 2 kts 187°
2026-05-08 05:50 27.97799 -82.53220 25 ft 2 kts 185°
2026-05-08 05:50 27.97813 -82.53217 25 ft 2 kts 187°
2026-05-08 05:50 27.97818 -82.53217 25 ft 1 kts 187°
2026-05-08 05:50 27.97791 -82.53223 25 ft 4 kts 191°
2026-05-08 05:51 27.97779 -82.53226 24 ft 0 kts 191°
2026-05-08 05:51 27.97774 -82.53226 24 ft 0 kts 188°